Flag for Italy Weather past 2 weeks in Modena, Italy

61 °F

Passing clouds.

Feels Like: 61 °F
Forecast: 61 / 71 °F
Wind: 5 mph from West

Location: Bologna / Borgo Panigale

Current Time: Oct 5, 2015 at 7:15:51 AM

Latest Report: Oct 5, 2015 at 6:20 AM

Visibility: 4 mi

Pressure: 30.04 "Hg

Humidity: 94%

Dew point: 59 °F

Location of ModenaLocation

Historic Weather in Modena — Graph


Modena temperature yesterday

Maximum temperature yesterday: 75 °F (at 1:20 PM)
Minimum temperature yesterday: 59 °F (at 8:20 AM)
Average temperature yesterday: 66 °F

Past Weeks' High & Low Weather Summary

High77 °F (Sep 20, 6:20 PM)100% (Oct 2, 2:20 PM)30.33 "Hg (Oct 2, 2:20 PM)
Low52 °F (Oct 1, 3:20 AM)38% (Sep 28, 12:20 PM)29.59 "Hg (Sep 23, 7:50 AM)
Average63 °F70%30.07 "Hg
* Reported Sep 20 5:20 AM — Oct 5 5:20 AM, Modena, Weather by CustomWeather, © 2015

Note: Actual official high and low records may vary slightly from our data, if they occured in-between our weather recording intervals... More about our weather records


Modena weather history for previous 24 hours

Time TempWeatherWind HumidityBarometerVisibility
5:20 AM
Mon, Oct 5
61 °FPassing clouds.3 mph94%30.04 "Hg4 mi
4:50 AM59 °FPassing clouds.3 mph100%30.04 "Hg4 mi
4:20 AM61 °FPassing clouds.2 mph94%30.04 "Hg4 mi
3:50 AM61 °FPassing clouds.3 mph94%30.04 "Hg4 mi
3:20 AM61 °FPartly cloudy.2 mph94%30.04 "Hg4 mi
2:50 AM61 °FPartly cloudy.2 mph94%30.01 "Hg4 mi
2:20 AM61 °FPartly cloudy.2 mph94%30.04 "Hg4 mi
1:50 AM61 °FPartly cloudy.3 mph94%30.04 "Hg4 mi
1:20 AM61 °FPassing clouds.2 mph94%30.04 "Hg4 mi
12:50 AM61 °FPassing clouds.5 mph94%30.04 "Hg4 mi
12:20 AM61 °FPassing clouds.3 mph94%30.07 "Hg4 mi
11:50 PM
Sun, Oct 4
63 °FPassing clouds.3 mph88%30.07 "Hg5 mi
11:20 PM63 °FPassing clouds.6 mph88%30.07 "Hg5 mi
10:50 PM63 °FPassing clouds.6 mph88%30.07 "HgN/A
10:20 PM63 °FPassing clouds.6 mph88%30.07 "HgN/A
9:50 PM64 °FPassing clouds.7 mph88%30.04 "HgN/A
9:20 PM64 °FPassing clouds.7 mph88%30.04 "HgN/A
8:50 PM64 °FPassing clouds.6 mph88%30.04 "HgN/A
8:20 PM66 °FPassing clouds.8 mph83%30.04 "HgN/A
7:50 PM68 °FPassing clouds.10 mph83%30.04 "HgN/A
7:20 PM68 °FPartly sunny.10 mph78%30.01 "HgN/A
6:50 PM66 °FPartly sunny.3 mph88%30.01 "HgN/A
6:20 PM66 °FPartly sunny.5 mph88%30.01 "HgN/A
5:50 PM68 °FBroken clouds.6 mph83%30.01 "HgN/A
5:20 PM70 °FRain showers. Fog.7 mph78%30.01 "Hg3 mi
4:50 PM75 °FPartly sunny.5 mph57%30.01 "HgN/A
4:20 PM75 °FScattered clouds.6 mph57%30.01 "HgN/A
3:50 PM75 °FScattered clouds.6 mph61%30.01 "HgN/A
3:20 PM75 °FScattered clouds.9 mph69%30.01 "HgN/A
2:50 PM75 °FScattered clouds.9 mph65%30.01 "HgN/A
2:20 PM75 °FPassing clouds.2 mph54%30.04 "HgN/A
1:50 PM73 °FPassing clouds.9 mph65%30.04 "HgN/A
1:20 PM75 °FPassing clouds.8 mph65%30.04 "HgN/A
12:50 PM73 °FPassing clouds.8 mph69%30.07 "HgN/A
12:20 PM70 °FPartly sunny.8 mph83%30.07 "HgN/A
11:50 AM66 °FPartly sunny.6 mph88%30.09 "HgN/A
11:20 AM64 °FLight rain. Partly sunny.6 mph94%30.09 "HgN/A
10:50 AM64 °FScattered clouds.5 mph88%30.09 "HgN/A
10:20 AM63 °FScattered clouds.5 mph94%30.09 "Hg4 mi
9:50 AM61 °FPartly sunny.5 mph94%30.09 "Hg4 mi
9:20 AM59 °FLight rain. Partly sunny.6 mph100%30.09 "Hg2 mi
8:50 AM59 °FRain. Broken clouds.7 mph94%30.12 "Hg1 mi
8:20 AM59 °FRain. Broken clouds.9 mph94%30.09 "Hg2 mi
7:50 AM61 °FPassing clouds.10 mph88%30.09 "HgN/A
7:20 AM64 °FPassing clouds.5 mph78%30.07 "HgN/A
Weather by CustomWeather, © 2015

See weather overviewHow to use our weather pages